Lapse_Rate
6.3 6.3 6.3 6.0 5.8 5.4 5.2 5.0 5.2 5.2 5.3 6.1 6.4 6.3 6.5 6.6 6.7 6.7 6.6 6.6 6.5 6.3 6.1 6.1 6.3 6.3 6.3 6.6 6.9 6.9 7.0 6.6 6.7 7.1 8.0 7.7 7.6 7.6 7.1 7.1 7.2 7.3 7.3 7.5 7.2
6.5 6.5 6.4 6.1 5.8 5.4 5.3 5.3 5.6 5.5 5.5 6.2 6.3 6.4 6.6 6.7 6.6 6.7 6.5 6.6 6.6 6.4 6.2 6.2 6.4 6.4 6.4 6.3 6.3 6.8 6.9 7.0 7.0 7.1 7.4 7.4 7.2 7.4 7.3 7.4 7.2 7.2 7.4 7.4 7.3
6.7 6.6 6.4 6.2 5.8 5.5 5.4 5.5 5.9 5.8 5.8 6.3 6.3 6.4 6.6 6.7 6.8 6.7 6.6 6.8 6.8 6.7 6.6 6.4 6.4 6.3 6.2 6.4 6.3 6.3 6.6 6.8 6.9 7.0 7.4 7.5 7.1 7.0 7.4 7.5 7.5 7.6 7.5 7.4 7.5
6.7 6.7 6.6 6.3 6.0 5.7 5.6 5.6 5.9 5.9 5.9 6.3 6.4 6.4 6.6 6.6 6.7 6.6 6.7 6.6 6.6 6.7 6.7 6.5 6.2 6.1 6.1 6.2 6.3 6.2 6.4 6.8 6.8 6.9 7.5 7.3 7.0 7.0 7.2 7.4 7.4 7.3 7.1 7.3 7.5
6.8 6.7 6.6 6.3 6.1 5.9 5.7 5.6 5.7 5.8 5.8 6.2 6.4 6.4 6.5 6.7 6.7 6.6 6.7 6.6 6.6 6.7 6.7 6.6 6.2 6.0 6.0 6.1 6.2 6.2 6.3 6.5 7.1 7.2 7.4 7.4 7.2 7.1 7.1 7.5 7.3 7.3 7.3 7.4 7.5
6.9 6.9 6.7 6.5 6.2 6.0 5.7 5.7 5.6 5.7 5.8 6.1 6.6 6.5 6.5 6.6 6.7 6.8 6.8 6.8 6.7 6.7 6.6 6.5 6.3 6.1 6.0 6.1 5.9 5.8 6.1 6.5 6.8 7.2 7.0 7.5 7.2 7.3 7.3 7.7 7.7 7.5 7.6 7.6 7.7
7.0 6.9 6.8 6.6 6.3 6.2 5.8 5.7 5.7 5.7 5.8 5.9 6.4 6.5 6.5 6.5 6.5 6.6 6.8 6.8 6.9 6.8 6.7 6.4 6.3 6.1 6.1 6.1 5.8 5.8 6.4 6.4 6.6 7.2 7.1 7.0 7.2 7.4 7.5 7.7 7.8 7.5 7.6 7.7 7.9
7.1 6.9 6.9 6.7 6.5 6.4 5.9 5.8 5.7 5.7 5.8 5.8 6.2 6.3 6.4 6.5 6.6 6.6 6.7 6.8 6.8 6.7 6.6 6.3 5.9 6.0 6.1 6.1 6.0 6.2 6.4 6.5 6.7 6.9 7.2 7.2 6.8 6.9 7.3 7.4 7.9 7.7 7.6 8.0 8.1
7.2 7.0 6.9 6.8 6.5 6.4 6.1 5.8 5.8 5.9 5.9 6.0 6.1 6.4 6.4 6.4 6.5 6.7 6.8 6.7 6.6 6.6 6.5 6.4 6.3 6.1 6.0 6.2 6.2 6.4 6.4 6.4 6.7 6.8 6.9 7.1 6.9 6.8 7.2 7.1 7.6 7.7 7.8 7.9 7.8
7.3 7.1 7.1 6.9 6.7 6.5 6.3 6.1 6.1 6.1 6.2 6.3 6.1 6.2 6.5 6.4 6.4 6.5 6.6 6.6 6.5 6.6 6.7 6.6 6.4 6.5 6.3 6.3 6.5 6.5 6.4 6.5 6.6 6.8 6.7 6.8 7.0 7.2 6.9 6.8 7.3 7.7 7.8 7.8 8.0
7.5 7.4 7.2 7.1 6.9 6.7 6.5 6.3 6.3 6.2 6.1 6.0 6.2 6.0 6.2 6.2 6.4 6.4 6.4 6.4 6.5 6.5 6.6 6.7 6.6 6.6 6.3 6.5 6.6 6.6 6.6 6.6 6.7 6.9 6.7 6.8 7.0 7.2 6.8 6.3 6.6 7.3 7.5 7.7 7.8
7.5 7.5 7.4 7.2 7.0 6.9 6.6 6.4 6.5 6.4 6.2 6.2 6.3 6.2 6.3 6.4 6.5 6.5 6.4 6.4 6.5 6.5 6.6 6.8 6.7 6.6 6.8 6.7 6.7 6.8 6.8 6.8 6.9 6.9 6.8 6.8 7.0 7.3 7.5 6.8 6.4 6.8 7.2 7.5 7.8
7.6 7.6 7.5 7.4 7.3 7.0 6.8 6.5 6.3 6.3 6.3 6.3 6.4 6.5 6.4 6.5 6.4 6.6 6.5 6.4 6.5 6.6 6.6 6.7 6.9 7.0 7.0 7.0 7.1 7.1 7.0 7.1 6.9 7.1 7.0 7.1 7.0 7.2 7.5 7.1 7.0 7.1 7.2 6.8 6.7
7.7 7.6 7.7 7.6 7.5 7.3 7.0 6.7 6.4 6.4 6.3 6.5 6.3 6.4 6.6 6.7 6.5 6.6 6.7 6.7 6.6 6.7 7.0 7.0 7.1 7.1 7.2 7.2 7.3 7.4 7.3 7.2 7.3 6.9 7.0 7.0 6.2 7.2 7.2 6.9 7.1 7.1 7.4 7.4 7.1
7.6 7.7 7.7 7.7 7.7 7.5 7.3 7.2 6.6 6.3 4.4 6.4 6.5 6.5 6.6 6.7 6.8 6.7 6.8 7.0 7.1 7.0 7.1 7.1 7.3 7.3 7.3 7.3 7.4 7.8 7.9 7.6 7.5 7.3 7.1 7.0 6.9 7.1 7.5 7.0 6.9 7.3 7.9 7.7 7.7
7.6 7.7 7.7 7.8 7.8 7.7 7.6 7.3 7.0 6.5 6.5 6.9 6.7 6.7 6.7 6.8 6.9 7.0 6.9 7.0 7.2 7.3 7.3 7.4 7.3 7.3 7.3 7.4 7.4 7.8 8.0 7.9 7.7 7.5 6.5 7.4 6.9 7.1 7.2 7.3 7.3 7.5 7.6 7.9 7.9
7.4 7.6 7.6 7.7 7.7 7.7 7.6 7.6 7.2 6.7 6.5 6.8 6.8 6.6 6.8 6.7 6.8 7.0 7.0 7.1 7.1 7.3 7.4 7.4 7.5 7.4 7.4 7.4 7.6 7.6 7.8 7.6 6.8 6.2 5.6 7.5 7.1 7.0 7.5 7.3 7.4 7.5 7.5 7.5 7.9
7.7 7.5 7.5 7.5 7.6 7.7 7.7 7.6 7.4 7.1 7.0 7.0 7.0 7.0 6.8 7.0 6.9 6.8 7.0 7.1 7.2 7.2 7.1 7.4 7.7 7.7 7.6 7.5 7.6 7.6 7.7 7.5 6.8 5.5 5.7 7.3 7.1 7.2 7.4 7.4 7.3 7.4 7.5 7.6 8.0
7.7 7.7 7.5 7.5 7.5 7.5 7.6 7.6 7.2 7.1 7.3 7.3 7.2 7.3 7.1 6.8 6.9 7.1 6.9 7.0 7.1 7.0 6.9 6.9 7.5 7.9 7.9 7.7 7.5 7.4 7.6 8.0 7.6 6.8 6.4 7.6 7.6 7.4 7.3 7.4 7.7 7.6 7.5 7.6 7.7
7.5 7.6 7.7 7.6 7.6 7.5 7.6 7.5 7.5 7.4 7.4 7.4 7.3 7.1 7.1 7.1 7.1 7.0 7.2 7.1 7.0 6.9 7.0 7.1 6.9 7.5 7.8 7.9 7.9 7.5 7.5 7.7 7.9 7.2 6.8 6.7 6.8 7.4 7.7 7.7 7.7 7.7 7.8 7.8 7.9
7.7 7.6 7.6 7.7 7.6 7.5 7.5 7.4 7.4 7.4 7.4 7.4 7.3 7.4 7.2 7.4 7.3 7.2 7.2 7.1 7.2 7.0 6.7 6.8 6.8 7.4 7.3 7.7 7.8 7.9 7.6 7.7 8.0 7.9 6.9 6.0 7.1 7.6 7.4 7.2 7.6 7.6 7.5 7.5 7.6
7.7 7.7 7.7 7.6 7.6 7.6 7.5 7.4 7.3 7.3 7.3 7.3 7.4 7.4 7.4 7.3 7.6 7.3 7.1 6.9 7.0 7.0 7.1 6.6 6.6 6.8 7.3 7.3 7.4 7.5 7.6 7.8 7.5 7.9 7.8 7.2 7.3 7.9 7.5 7.4 7.5 7.6 7.5 7.3 7.3
7.6 7.6 7.7 7.7 7.5 7.6 7.5 7.5 7.4 7.4 7.3 7.3 7.3 7.3 7.3 7.3 7.4 7.4 7.6 7.4 7.1 6.6 6.7 6.7 6.5 6.5 7.5 7.2 7.1 7.1 7.3 7.5 7.6 7.8 7.6 7.1 7.6 8.3 7.9 7.9 7.8 7.5 7.3 7.1 7.1
7.4 7.3 7.5 7.6 7.6 7.5 7.4 7.5 7.5 7.4 7.3 7.3 7.3 7.3 7.2 7.3 7.2 7.2 7.1 7.3 7.3 7.0 6.6 6.4 6.6 6.4 6.4 7.0 6.9 6.9 7.1 7.1 7.0 6.9 7.5 7.4 7.9 8.2 8.2 7.8 7.4 7.2 7.1 7.0 7.1
7.1 7.3 7.4 7.4 7.5 7.4 7.3 7.2 7.4 7.3 7.2 7.2 7.3 7.2 7.2 7.1 7.0 7.1 7.1 7.0 7.2 7.0 6.7 6.1 6.0 6.1 6.6 6.4 6.2 6.7 7.1 7.0 6.9 7.2 6.6 7.8 7.6 8.3 8.0 7.7 7.5 7.4 7.2 7.0 6.9
7.1 7.1 7.2 7.2 7.2 7.1 7.2 7.3 7.4 7.2 7.2 7.2 7.1 6.9 7.0 7.2 6.9 6.9 6.7 6.9 6.7 6.9 6.4 5.9 5.7 5.5 6.7 6.6 6.3 6.4 6.9 6.9 6.8 7.0 7.0 7.2 7.5 7.9 8.0 7.7 7.4 7.1 7.2 7.3 7.2
6.8 6.7 6.7 7.1 7.1 7.2 7.3 7.3 7.0 7.1 7.1 7.0 7.0 6.9 7.0 7.1 6.9 7.0 6.9 6.9 6.8 6.6 6.4 6.0 5.4 4.9 5.6 5.9 5.8 6.0 6.7 6.4 6.7 6.8 6.8 6.9 7.9 7.2 6.9 6.9 6.9 6.9 7.0 6.8 6.7
Wind_Speed
11 11 10 11 11 12 14 16 18 18 17 17 13 13 12 10 6 3 3 5 4 8 11 6 3 5 2 2 2 1 3 5 8 8 4 2 3 1 4 7 1 2 5 8 20
9 10 11 11 12 12 13 15 17 17 16 16 13 12 12 9 3 3 8 9 8 8 5 4 4 7 1 2 2 2 3 7 4 5 5 1 1 6 5 5 2 4 10 18 20
8 9 10 10 11 12 13 14 15 15 15 15 15 13 13 4 2 3 6 10 9 6 1 2 3 1 1 1 2 2 4 3 1 2 3 1 1 2 8 3 7 11 17 18 20
7 7 8 10 11 12 13 14 15 14 13 14 15 16 14 2 2 3 14 14 8 4 2 2 3 2 0 2 2 1 6 4 3 2 3 2 3 1 3 3 4 17 22 20 20
6 7 8 10 11 11 13 13 14 13 13 14 15 19 4 3 2 5 13 8 4 2 2 3 3 3 2 3 2 2 3 3 6 1 4 4 3 4 2 4 10 15 17 17 17
6 6 8 10 11 11 13 13 13 13 13 13 14 15 3 4 4 10 10 5 2 2 2 1 1 2 3 2 1 3 3 5 6 4 1 5 3 4 2 7 10 17 17 14 16
7 7 8 10 11 12 12 13 12 14 13 12 13 4 2 3 6 13 6 2 2 0 3 1 2 2 1 3 3 3 2 3 2 2 2 3 6 3 5 6 12 12 12 11 9
6 7 8 10 11 12 12 14 13 13 13 9 12 2 4 4 9 6 6 4 1 2 2 4 2 2 1 4 4 2 4 2 4 2 1 3 18 4 7 11 10 9 10 12 9
7 7 8 10 11 13 14 16 16 12 11 9 4 3 5 10 4 5 2 3 4 3 3 3 2 1 4 3 4 6 3 2 3 6 2 2 4 2 7 9 7 8 9 10 10
8 8 7 8 10 13 18 14 8 6 2 2 1 3 5 5 5 5 3 3 2 6 4 4 4 3 3 4 3 2 2 2 2 4 0 2 6 3 5 3 8 7 6 7 8
9 8 7 6 8 12 9 3 5 4 6 1 5 3 5 7 1 4 3 5 3 4 3 4 5 1 4 1 1 1 0 3 3 3 4 6 7 8 7 5 5 8 8 8 10
8 8 7 6 7 9 2 5 3 2 5 3 5 5 5 2 3 5 4 4 4 3 5 5 2 2 4 3 3 2 1 3 5 3 4 1 10 5 6 8 11 9 9 10 6
9 8 7 6 6 4 4 3 3 4 0 6 4 3 5 1 4 4 4 2 3 5 2 1 5 5 2 1 2 1 3 3 4 4 0 4 5 6 5 3 5 9 8 8 12
8 8 7 10 4 1 2 4 4 1 4 6 4 3 2 1 4 2 2 1 4 4 6 2 4 4 3 2 1 1 1 2 3 3 4 2 4 6 6 7 7 12 10 11 12
7 7 7 8 3 2 1 4 2 3 5 6 6 2 3 2 3 4 3 4 3 4 4 5 6 6 2 1 1 5 4 2 2 3 2 2 3 7 0 9 9 13 10 12 14
6 5 5 3 2 1 5 2 3 6 3 7 4 6 5 1 2 4 3 2 1 4 3 5 1 1 2 3 2 4 2 4 4 2 2 4 5 5 5 7 6 8 11 10 8
7 6 2 1 0 5 3 3 5 6 4 8 4 5 4 3 3 1 4 5 1 5 5 6 2 2 1 4 2 4 5 3 3 3 5 2 3 9 4 4 3 7 8 7 7
7 6 3 1 1 2 3 5 8 1 4 3 4 5 2 3 2 2 2 4 1 3 2 2 6 3 2 2 1 2 5 4 4 3 4 1 5 7 4 2 4 6 8 8 7
5 2 2 2 2 3 4 5 4 4 3 5 7 3 4 3 3 3 1 1 1 1 1 1 5 2 2 2 4 1 3 3 4 2 1 3 7 10 5 5 1 4 2 3 4
2 1 2 3 1 4 4 4 4 4 1 0 1 2 3 5 6 5 1 2 2 1 2 2 4 1 2 0 1 4 2 1 2 2 4 5 5 7 6 7 2 0 4 4 4
3 2 1 3 2 4 3 5 4 4 3 4 2 3 4 3 1 3 4 2 2 2 1 1 2 5 3 4 3 2 1 1 1 4 3 2 6 6 5 4 7 6 3 4 6
2 1 2 2 2 1 2 4 2 3 2 3 2 3 3 3 3 2 3 4 3 1 1 1 3 4 9 1 2 2 3 5 3 3 2 2 7 1 4 7 6 7 6 5 6
1 2 2 3 1 2 3 2 3 4 4 5 4 6 1 3 3 5 3 2 3 2 2 3 2 4 7 4 2 2 4 3 2 3 5 4 6 1 4 4 1 6 6 6 6
2 2 3 3 0 2 2 3 2 3 3 3 3 1 1 3 5 4 3 1 3 2 3 1 3 6 5 6 3 4 4 4 4 2 4 7 8 9 6 5 5 4 4 6 6
2 3 2 3 3 3 2 2 3 3 3 4 2 6 6 3 3 4 4 4 2 2 2 2 4 4 7 11 5 9 11 8 8 7 7 10 9 2 7 7 7 6 6 6 6
2 1 2 2 1 4 3 4 6 4 7 4 5 2 7 6 8 6 4 3 6 2 3 1 4 2 6 6 5 7 10 9 8 6 9 8 21 9 8 3 5 11 11 9 7
1 1 3 3 1 4 5 6 6 4 6 5 8 4 5 12 9 8 6 5 4 4 5 5 3 1 5 5 8 7 6 5 5 6 6 8 11 4 5 7 7 8 11 11 10
Wind_Direction
328 322 324 329 339 349 356 359 356 357 357 354 348 349 357 357 344 338 282 261 267 318 327 308 360 348 68 310 299 172 117 192 185 165 213 269 149 57 83 121 61 37 154 151 142
319 319 323 327 335 341 346 351 349 353 356 359 353 350 345 4 21 307 247 308 317 315 343 348 338 347 12 269 294 178 178 200 199 170 208 356 211 154 123 139 63 62 78 127 139
309 316 321 327 332 337 339 340 340 346 352 354 353 351 337 344 17 325 307 320 314 330 275 308 302 259 259 240 234 200 225 225 357 204 146 296 79 329 135 226 203 167 147 145 148
308 309 318 326 329 334 334 338 336 340 346 346 354 341 328 316 97 303 339 325 320 340 321 359 356 354 211 219 276 286 268 288 320 84 151 240 325 197 150 257 188 158 159 151 160
316 309 324 324 327 331 328 335 333 338 341 342 354 341 6 6 318 304 335 347 23 32 27 25 38 1 337 292 312 182 286 324 323 133 202 302 246 176 215 351 120 136 155 159 163
326 318 324 324 325 327 326 329 330 332 338 342 353 348 19 30 278 315 333 339 19 43 343 24 334 252 265 284 308 304 262 288 308 358 225 188 255 190 92 119 127 153 159 167 171
340 331 327 322 323 321 322 321 325 323 326 336 343 13 341 245 330 327 346 306 252 175 343 284 328 348 329 302 333 284 267 351 267 283 281 186 304 253 165 137 142 159 162 169 180
349 341 333 323 318 316 316 311 310 312 311 323 335 45 280 273 312 331 333 343 39 254 249 293 291 258 205 309 3 188 46 138 278 167 290 167 212 174 159 146 157 175 176 171 184
351 340 332 320 315 315 313 306 298 299 295 304 11 31 324 326 358 305 330 331 303 314 302 288 45 60 15 35 27 16 194 215 302 209 72 158 237 235 166 150 176 188 190 185 184
342 334 325 318 316 317 312 303 299 322 348 141 185 4 329 302 301 321 310 342 342 328 7 43 41 59 33 56 184 41 65 249 229 225 194 141 268 230 184 189 195 195 198 200 192
336 332 323 328 326 327 341 27 17 355 34 156 269 261 280 293 319 321 329 343 10 44 22 355 56 193 240 223 170 177 203 332 277 245 151 217 242 234 206 166 204 211 205 210 207
334 335 328 340 333 333 20 74 127 194 323 296 250 264 254 290 331 324 18 40 37 357 345 11 347 239 216 208 227 259 309 289 285 266 168 168 256 283 183 211 209 225 217 219 184
336 340 335 341 344 35 70 74 344 126 62 302 261 273 277 27 309 293 21 328 17 4 9 171 274 323 154 333 39 210 183 237 215 348 256 120 294 249 227 212 224 223 226 205 202
341 344 346 334 44 311 65 335 2 113 56 305 347 315 6 319 308 280 26 48 357 338 347 284 328 15 19 338 54 288 205 320 286 133 213 154 255 275 214 220 216 236 208 203 197
348 354 0 26 153 70 283 344 25 58 48 299 300 287 326 69 303 342 341 25 322 305 60 269 347 3 356 276 353 238 13 327 319 164 92 325 83 270 146 219 226 237 237 218 210
344 0 2 13 35 359 337 25 58 45 296 329 308 344 5 339 276 310 9 37 238 322 330 254 316 187 282 300 222 305 329 46 61 71 18 224 143 279 216 214 223 229 237 224 212
335 348 26 104 223 334 3 45 36 84 2 316 324 353 341 284 306 16 339 328 41 17 357 328 291 312 53 328 348 69 53 353 0 6 219 199 73 242 250 233 237 272 282 255 192
335 333 347 54 359 18 59 50 62 262 273 329 326 315 298 327 267 309 345 331 32 93 345 25 332 193 190 177 279 270 153 157 210 211 265 76 238 247 222 260 279 263 267 241 187
326 345 3 305 341 76 76 49 203 209 264 319 324 343 320 344 325 18 240 241 272 207 157 306 277 274 222 188 132 31 220 170 112 5 20 242 291 302 205 240 301 357 64 87 101
44 32 281 319 9 60 77 210 207 199 195 98 333 28 315 314 0 359 311 219 271 184 156 262 305 253 285 59 265 154 290 32 6 216 259 284 275 240 269 254 209 16 102 100 101
68 4 268 355 77 51 137 223 230 222 158 170 253 276 265 267 261 296 291 278 180 292 298 242 140 287 350 202 202 139 200 307 142 153 199 286 268 217 255 265 217 216 180 136 119
93 336 310 39 31 68 160 198 191 210 166 233 219 230 229 297 270 263 274 227 177 201 2 284 170 269 233 285 246 174 262 152 131 238 227 176 273 248 286 297 210 190 179 147 135
71 259 340 77 203 264 245 244 220 196 214 179 234 209 190 249 282 222 244 171 167 183 230 166 280 323 338 11 14 241 227 224 72 115 215 172 262 337 334 359 229 180 182 168 147
83 332 322 59 101 173 212 237 243 201 256 198 226 171 219 258 214 284 279 224 169 162 151 162 180 200 220 235 184 254 221 196 176 158 212 218 277 282 302 250 215 207 177 165 157
59 241 201 272 273 188 192 261 212 240 212 197 256 222 183 256 267 231 237 295 156 137 125 165 257 191 246 255 243 247 249 219 195 217 216 269 233 240 272 267 215 186 167 163 167
161 138 16 270 284 165 182 238 221 230 161 224 213 211 195 213 208 260 224 196 244 153 171 150 270 309 287 271 230 265 246 231 230 244 254 268 274 204 228 165 176 186 177 181 181
323 332 111 271 239 138 219 216 226 186 232 185 196 174 209 235 234 242 219 231 228 195 203 176 185 346 265 329 316 290 230 194 207 208 192 215 254 190 239 246 234 198 188 181 166